Flag for Canada Weather past 2 weeks in Saskatoon, Saskatchewan, Canada

Now
-11 °F

Clear.


Feels Like: -28 °F
Forecast: -14 / 5 °F
Wind: 8 mph from Southwest

Location: Saskatoon Weather Station

Current Time: Feb 1, 2015 at 7:53:57 AM

Latest Report: Feb 1, 2015 at 7:00 AM


Visibility: 15 mi

Pressure: 30.61 "Hg

Humidity: 76%

Dew point: -17 °F

Location of SaskatoonLocation

Historic Weather in Saskatoon — Graph

°F

Saskatoon temperature yesterday

Maximum temperature yesterday: 10 °F (at 12:00 AM)
Minimum temperature yesterday: -11 °F (at 9:00 AM)
Average temperature yesterday: -6 °F

Past Weeks' High & Low Weather Summary

 TemperatureHumidityPressure
High43 °F (Jan 22, 6:00 PM)100% (Jan 19, 1:00 AM)30.79 "Hg (Jan 19, 1:00 AM)
Low-11 °F (Jan 31, 9:00 AM)57% (Jan 30, 11:00 PM)29.70 "Hg (Jan 18, 5:00 PM)
Average23 °F84%30.08 "Hg
* Reported Jan 17 6:00 AM — Feb 1 6:00 AM, Saskatoon, Weather by CustomWeather, © 2014

Note: Actual official high and low records may vary slightly from our data, if they occured in-between our weather recording intervals... More about our weather records

Advertising

Saskatoon weather history for previous 24 hours

 ConditionsComfort  
Time TempWeatherWind HumidityBarometerVisibility
6:00 AM
Feb 1
-11 °FClear.7 mph76%30.64 "Hg15 mi
5:00 AM-11 °FClear.8 mph76%30.66 "Hg15 mi
4:00 AM-11 °FClear.8 mph76%30.67 "Hg15 mi
3:00 AM-9 °FPassing clouds.8 mph77%30.70 "Hg15 mi
2:00 AM-9 °FPassing clouds.7 mph77%30.72 "Hg15 mi
1:00 AM-9 °FPassing clouds.7 mph77%30.73 "Hg15 mi
12:00 AM-9 °FPartly cloudy.5 mph77%30.74 "Hg15 mi
11:00 PM
Jan 31
-9 °FPartly cloudy.6 mph77%30.74 "Hg15 mi
10:00 PM-8 °FPartly cloudy.5 mph70%30.75 "Hg15 mi
9:00 PM-8 °FPassing clouds.3 mph70%30.76 "Hg15 mi
8:00 PM-8 °FPassing clouds.2 mph77%30.77 "Hg15 mi
7:00 PM-8 °FOvercast.2 mph70%30.77 "Hg15 mi
6:00 PM-8 °FOvercast.No wind70%30.77 "Hg15 mi
5:00 PM-8 °FOvercast.3 mph64%30.77 "Hg15 mi
4:00 PM-8 °FMore clouds than sun.5 mph64%30.77 "Hg15 mi
3:00 PM-8 °FMore clouds than sun.6 mph70%30.76 "Hg15 mi
2:00 PM-8 °FMore clouds than sun.6 mph70%30.77 "Hg15 mi
1:00 PM-9 °FOvercast.6 mph70%30.79 "Hg15 mi
12:00 PM-9 °FOvercast.10 mph64%30.78 "Hg15 mi
11:00 AM-11 °FOvercast.9 mph70%30.77 "Hg15 mi
10:00 AM-11 °FPartly sunny.13 mph76%30.74 "Hg15 mi
9:00 AM-11 °FScattered clouds.12 mph76%30.73 "Hg15 mi
8:00 AM-9 °FPassing clouds.16 mph77%30.71 "Hg15 mi
7:00 AM-8 °FPassing clouds.15 mph77%30.68 "Hg15 mi
Weather by CustomWeather, © 2014

See weather overviewHow to use our weather pages